TimeEDT,TemperatureF,Dew PointF,Humidity,Sea Level PressureIn,VisibilityMPH,Wind Direction,Wind SpeedMPH,Gust SpeedMPH,PrecipitationIn,Events,Conditions,WindDirDegrees,DateUTC
12:54 AM,75.9,64.0,67,30.07,10.0,Calm,Calm,-,N/A,,Clear,0,2013-06-24 04:54:00
1:54 AM,75.0,63.0,66,30.07,10.0,NNE,3.5,-,N/A,,Clear,30,2013-06-24 05:54:00
2:54 AM,72.0,64.0,76,30.07,10.0,NNE,3.5,-,N/A,,Clear,20,2013-06-24 06:54:00
3:54 AM,70.0,64.0,81,30.07,10.0,Calm,Calm,-,N/A,,Clear,0,2013-06-24 07:54:00
4:54 AM,66.9,63.0,87,30.08,10.0,Calm,Calm,-,N/A,,Clear,0,2013-06-24 08:54:00
5:54 AM,66.0,63.0,90,30.08,8.0,Calm,Calm,-,N/A,,Clear,0,2013-06-24 09:54:00
6:54 AM,68.0,64.0,87,30.10,9.0,Calm,Calm,-,N/A,,Clear,0,2013-06-24 10:54:00
7:54 AM,72.0,64.9,78,30.10,10.0,Calm,Calm,-,N/A,,Clear,0,2013-06-24 11:54:00
8:54 AM,75.0,66.0,73,30.10,-9999.0,North,-9999.0,-,N/A,,Clear,0,2013-06-24 12:54:00
9:54 AM,79.0,66.9,66,30.09,-9999.0,Variable,3.5,-,N/A,,Clear,0,2013-06-24 13:54:00
10:54 AM,84.0,66.9,56,30.08,10.0,WSW,5.8,-,N/A,,Clear,250,2013-06-24 14:54:00
11:54 AM,87.1,66.0,49,30.06,10.0,SW,4.6,-,N/A,,Clear,230,2013-06-24 15:54:00
12:54 PM,89.1,64.9,45,30.05,10.0,SW,8.1,-,N/A,,Clear,230,2013-06-24 16:54:00
1:54 PM,91.0,64.0,41,30.01,10.0,SW,11.5,-,N/A,,Clear,230,2013-06-24 17:54:00
2:44 PM,91.4,62.6,38,30.01,10.0,West,15.0,21.9,N/A,Thunderstorm,Mostly Cloudy,260,2013-06-24 18:44:00
2:54 PM,84.9,64.0,49,30.00,10.0,Variable,4.6,18.4,N/A,Thunderstorm,Scattered Clouds,0,2013-06-24 18:54:00
3:54 PM,90.0,63.0,40,29.97,10.0,West,8.1,-,N/A,,Clear,260,2013-06-24 19:54:00
4:54 PM,91.0,62.1,38,29.95,10.0,WSW,9.2,-,N/A,,Partly Cloudy,250,2013-06-24 20:54:00
5:54 PM,91.0,60.1,35,29.95,10.0,SW,8.1,-,N/A,,Partly Cloudy,220,2013-06-24 21:54:00
6:54 PM,87.1,66.9,51,29.96,10.0,ENE,11.5,-,N/A,,Partly Cloudy,70,2013-06-24 22:54:00
7:54 PM,82.9,68.0,60,29.96,10.0,ENE,8.1,-,N/A,,Clear,70,2013-06-24 23:54:00
8:54 PM,78.1,66.0,66,29.96,10.0,ESE,3.5,-,N/A,,Clear,120,2013-06-25 00:54:00
9:54 PM,75.9,64.9,69,29.99,10.0,SE,3.5,-,N/A,,Clear,130,2013-06-25 01:54:00
10:54 PM,73.0,66.0,79,30.00,10.0,Calm,Calm,-,N/A,,Clear,0,2013-06-25 02:54:00
11:54 PM,72.0,66.0,81,30.00,10.0,Calm,Calm,-,N/A,,Clear,0,2013-06-25 03:54:00